Terminal Aerodrome Forecast
Issued by NWS

Home | Current Version | Previous Version | Text Only | Print | Product List | Glossary On
Versions: 1 2 3 4 5 6 7 8 9 10 11 12 13 14 15
000
FTAK31 PAFA 240532
TAFAGA
TAF
PAGA 240532Z 2406/2506 21005KT P6SM VCSH SCT060 BKN100
     FM241000 11008KT P6SM OVC050
     FM241400 12010KT 4SM -RA BR SCT025 OVC050
     FM241700 13016G26KT 3SM -RA BR BKN025 OVC050
     FM242300 20015G22KT P6SM -RA BKN025 OVC050=

USA.gov is the U.S. government's official web portal to all federal, state and local government web resources and services.